Tracking 29892 objects as of 21-Nov-2024
HD Live streaming from Space Station
objects crossing your sky now

STARLINK-31729

Track STARLINK-31729 now!
10-day predictions
STARLINK-31729 is classified as:


NORAD ID: 59610
Int'l Code: 2024-080K
Perigee: 450.4 km
Apogee: 452.1 km
Inclination: 43.0 °
Period: 93.5 minutes
Semi major axis: 6822 km
RCS: Unknown
Launch date: April 28, 2024
Source: United States (US)
Launch site: AIR FORCE EASTERN TEST RANGE (AFETR)
Your satellite tracking list
Your tracking list is empty




NASA's NSSDC Master Catalog

Two Line Element Set (TLE):
1 59610U 24080K   24325.09801105  .00006571  00000-0  16453-3 0  9996
2 59610  43.0022 217.7497 0001289 270.0359  90.0350 15.40680174 31723
Source of the keplerian elements: AFSPC